DECAYED

COSMOS 2251 DEB, 47061 (Decayed)

Orbit data source: Space-Track

COSMOS 2251 DEB, 47061 was space debris in LEO originally from a launch on Wed, 16 Jun 1993 UTC launched from the Plesetsk Missile And Space Complex (PKMTR). The debris from Iridium 33, an American commercial communications satellite, has been tracked extensively since its accidental collision with the defunct Russian satellite Cosmos 2251 in 2009. This event, occurring at high speed in low Earth orbit (LEO), generated thousands of pieces of space debris, significantly increasing the risk of further collisions. The Iridium 33 debris cloud has impacted space traffic management and orbital debris mitigation strategies, making it a subject of ongoing study in space situational awareness.

Not visible in the next 10 days
Identifier
47061, 1993-036BXR
Orbit
Decayed
Country
Flag of CISCIS
Related business
Manufacturer
Unknown
Mission
Decayed spacecraft
Bus & Motor
Unknown
Mass
Unknown
Launch date (UTC)
Icon of a cake. It is the launch day of the satellite!1993-06-16 (33 years ago)
Launch vehicle
Unknown
Launch site
Plesetsk Missile And Space Complex (PKMTR)
Object type
Payload
Rocket body
Debris
Shape & HBR
Unknown shape, 0.1 m
Radar Cross Section
Small (<0.1 m²)

Expand to show TLE details & history
Last TLE update: 1 week ago

TLE from 1 week ago
0 COSMOS 2251 DEB
1 47061U 93036BXR 26158.75484231  .01455121  97170-3  53834-2 0  9996
2 47061  73.9592 171.1217 0012819 268.1757  91.8007 15.88104189670959
Epoch: 2026-06-07T18:06Z
TLE epoch observation values (Epoch: 2026-06-07T18:06:58.375Z)
Latitude
-0.00006°
Longitude
3.22695°
Altitude
310.666 km
Speed
7.722 km/s
True Right ascension
11h 24m 29s
True Declination
0° 00' 00"
Sunlit
Object was in daylight at epoch
Visualization orbit readout
Latitude
Unknown
Longitude
Unknown
Altitude
Unknown
Speed
Unknown
Apparent Right ascension
Unknown
Apparent Declination
Unknown
Sunlit
N/A
Visualization observer readout
Local Sidereal Time
21:17:44
Azimuth
Unknown
Elevation
Unknown
Doppler factor
Unknown
Orbital elements
Apogee altitude
313.631 km
Perigee altitude
296.497 km
Semi-major axis
6,683.201 km
Eccentricity
0.00128
Inclination
73.9592°
RAAN
171.1217°
Arg. of periapsis
268.1757°
True anomaly
91.94751°
Mean anomaly
91.8007°
Eccentric anomaly
91.87411°
Mean motion
3.97252 °/min
Orbital period
90.62 mins
BSTAR
0.0053834

Documentation

Showing up to 5 results
|